sat.trackr.live / text

‹ back to catalog

STARLINK-31766

NORAD 59723 · 2024-088R

PAYLOAD ACTIVE UNKNOWN

§ Identity

Operator
Country
US
Launch date
2024-05-10
Launch site
AFWTR
Launch vehicle
Mass (kg)
RCS (m²)

Purposes: comms

External: N2YO · Heavens-Above · Gunter

§ Orbital elements

Epoch: 2026-05-24T23:51:08.316000Z

Period
94.11 min
Inclination
53.1606°
Eccentricity
0.0001242
Mean motion
15.30192413 rev/d
Perigee alt
474.4 km
Apogee alt
476.1 km
Semi-major
6,853.4 km
B*
2.6124e-5
RAAN
145.5581°
Arg perigee
85.9535°
Mean anomaly
274.1608°
Rev number
11,536

§ Raw data

STARLINK-317661 59723U 24088R   26144.99384625  .00000414  00000+0  26124-4 0  99982 59723  53.1606 145.5581 0001242  85.9535 274.1608 15.30192413115365

JSON: /api/v1/satellites/59723 · /tle

For live sub-satellite position, see the globe view (requires WebGL).

§ Visibility from observer

Set your observer location to see the next 7 days of passes ≥ 10°. The values pass through the URL so the page stays shareable.

No JS? Fill the form by hand. The geolocation button needs JavaScript.